{"data":{"norad_id":60732,"intl_designator":"2024-152N","name":"STARLINK-11266 [DTC]","alt_names":[],"object_type":"PAYLOAD","status":"ACTIVE","operator":null,"country":"US","launch_date":"2024-08-28","launch_site_code":"AFETR","launch_vehicle":null,"mission":null,"orbit_class":"UNKNOWN","rcs_meters":null,"size_class":null,"mass_kg":null,"dimensions":null,"purposes":["comms"],"wikipedia_slug":null,"has_3d_model":false,"image_url":null,"decayed_at":null,"tle_current":{"epoch":"2026-05-25T02:47:06.099648Z","epoch_age_seconds":58183,"freshness":"FRESH","line1":"1 60732U 24152N   26145.11604282  .00000221  00000+0  66844-5 0  9991","line2":"2 60732  53.1602  99.1235 0001051 102.0629 258.0507 15.69707253100848","mean_motion":15.69707253,"eccentricity":0.0001051,"inclination_deg":53.1602,"raan_deg":99.1235,"arg_perigee_deg":102.0629,"mean_anomaly_deg":258.0507,"bstar":6.6844e-6,"rev_number":10084,"period_min":91.736850756591,"perigee_km":359.0264609874,"apogee_km":360.4427616001,"semimajor_km":6737.8716112937,"source":"CELESTRAK","updated_at":"2026-05-25T13:38:19.310060Z"}}}